When you browse on this site, cookies collect data to enhance your experience and personalize the content and advertising you see.
Visit our Privacy Policy to learn more. By continuing to use the site, you agree to this use of cookies and data.
  • In Austria
  • List of Countries
  • For 7 days
  • Water Temperature
  • Satellite Maps
  • Weather Map
  • News
  • Weather Widgets
  • user-avatar
    Login

    Hourly Weather Krivyach

    Today, 17 July, Wednesday

    Time Temperature Precipitation Wind Pressure Humidity
    00:00 +12°C° 0 mm 3 mps 742 mmHg 93%
    01:00 +11°C° 0 mm 3 mps 742 mmHg 95%
    02:00 +10°C° 0 mm 3 mps 743 mmHg 96%
    03:00 +10°C° 0 mm 3 mps 743 mmHg 97%
    04:00 +10°C° 0 mm 3 mps 743 mmHg 97%
    05:00 +10°C° 0 mm 3 mps 743 mmHg 98%
    06:00 +11°C° 0 mm 3 mps 742 mmHg 94%
    07:00 +12°C° 0 mm 3 mps 742 mmHg 91%
    08:00 +14°C° 0 mm 3 mps 742 mmHg 87%
    09:00 +16°C° 0.3 mm 3 mps 742 mmHg 82%
    10:00 +17°C° 0.3 mm 3 mps 742 mmHg 77%
    11:00 +18°C° 0.3 mm 3 mps 742 mmHg 73%
    12:00 +18°C° 0.8 mm 4 mps 742 mmHg 74%
    13:00 +18°C° 0.8 mm 4 mps 742 mmHg 76%
    14:00 +18°C° 0.8 mm 4 mps 741 mmHg 77%
    15:00 +18°C° 0.4 mm 4 mps 741 mmHg 76%
    16:00 +18°C° 0.4 mm 3 mps 741 mmHg 75%
    17:00 +18°C° 0.4 mm 3 mps 742 mmHg 73%
    18:00 +17°C° 0.2 mm 3 mps 741 mmHg 79%
    19:00 +16°C° 0.2 mm 2 mps 741 mmHg 84%
    20:00 +14°C° 0.2 mm 2 mps 741 mmHg 89%
    21:00 +14°C° 0 mm 2 mps 742 mmHg 91%
    22:00 +13°C° 0 mm 2 mps 742 mmHg 93%
    23:00 +11°C° 0 mm 3 mps 742 mmHg 95%

    Tomorrow, 18 July, Thursday

    Time Temperature Precipitation Wind Pressure Humidity
    00:00 +11°C° 0 mm 3 mps 742 mmHg 95%
    01:00 +11°C° 0 mm 3 mps 742 mmHg 96%
    02:00 +10°C° 0 mm 3 mps 742 mmHg 96%
    03:00 +10°C° 0 mm 3 mps 742 mmHg 97%
    04:00 +10°C° 0 mm 3 mps 742 mmHg 97%
    05:00 +10°C° 0 mm 3 mps 742 mmHg 98%
    06:00 +11°C° 0 mm 4 mps 742 mmHg 96%
    07:00 +12°C° 0 mm 4 mps 743 mmHg 94%
    08:00 +14°C° 0 mm 4 mps 743 mmHg 93%
    09:00 +14°C° 0 mm 4 mps 743 mmHg 90%
    10:00 +15°C° 0 mm 4 mps 743 mmHg 87%
    11:00 +17°C° 0 mm 4 mps 744 mmHg 84%
    12:00 +18°C° 0.3 mm 4 mps 744 mmHg 80%
    13:00 +20°C° 0.3 mm 5 mps 744 mmHg 77%
    14:00 +21°C° 0.3 mm 5 mps 744 mmHg 73%
    15:00 +21°C° 0.6 mm 4 mps 744 mmHg 75%
    16:00 +21°C° 0.6 mm 4 mps 744 mmHg 78%
    17:00 +20°C° 0.6 mm 4 mps 744 mmHg 80%
    18:00 +19°C° 0.2 mm 4 mps 744 mmHg 83%
    19:00 +18°C° 0.2 mm 3 mps 744 mmHg 86%
    20:00 +17°C° 0.2 mm 3 mps 744 mmHg 89%
    21:00 +16°C° 0 mm 3 mps 745 mmHg 91%
    22:00 +14°C° 0 mm 3 mps 745 mmHg 93%
    23:00 +13°C° 0 mm 3 mps 746 mmHg 94%

    Day after tomorrow, 19 July, Friday

    Time Temperature Precipitation Wind Pressure Humidity
    00:00 +13°C° 0 mm 3 mps 746 mmHg 95%
    01:00 +13°C° 0 mm 3 mps 746 mmHg 95%
    02:00 +12°C° 0 mm 3 mps 746 mmHg 95%
    03:00 +12°C° 0 mm 3 mps 746 mmHg 95%
    04:00 +13°C° 0 mm 2 mps 746 mmHg 96%
    05:00 +13°C° 0 mm 2 mps 747 mmHg 96%
    06:00 +14°C° 0 mm 2 mps 747 mmHg 92%
    07:00 +16°C° 0 mm 2 mps 747 mmHg 89%
    08:00 +18°C° 0 mm 2 mps 748 mmHg 85%
    09:00 +19°C° 0.1 mm 3 mps 748 mmHg 79%
    10:00 +21°C° 0.1 mm 3 mps 748 mmHg 73%
    11:00 +22°C° 0.1 mm 3 mps 748 mmHg 67%
    12:00 +24°C° 0.1 mm 3 mps 748 mmHg 62%
    13:00 +23°C° 0.1 mm 4 mps 748 mmHg 58%
    14:00 +25°C° 0.1 mm 4 mps 748 mmHg 54%
    15:00 +25°C° 0.1 mm 3 mps 748 mmHg 57%
    16:00 +24°C° 0.1 mm 3 mps 748 mmHg 60%
    17:00 +24°C° 0.1 mm 3 mps 747 mmHg 63%
    18:00 +21°C° 0.1 mm 2 mps 748 mmHg 69%
    19:00 +21°C° 0.1 mm 1 mps 748 mmHg 76%
    20:00 +17°C° 0.1 mm 0 mps 748 mmHg 82%
    21:00 +18°C° 0 mm 1 mps 748 mmHg 84%
    22:00 +16°C° 0 mm 1 mps 748 mmHg 86%
    23:00 +16°C° 0 mm 1 mps 749 mmHg 88%

    20 July, Saturday

    Time Temperature Precipitation Wind Pressure Humidity
    00:00 +15°C° 0 mm 1 mps 749 mmHg 89%
    01:00 +15°C° 0 mm 1 mps 749 mmHg 90%
    02:00 +15°C° 0 mm 1 mps 749 mmHg 91%
    03:00 +15°C° 0 mm 1 mps 749 mmHg 91%
    04:00 +15°C° 0 mm 1 mps 749 mmHg 92%
    05:00 +15°C° 0 mm 1 mps 749 mmHg 92%
    06:00 +16°C° 0 mm 1 mps 749 mmHg 87%
    07:00 +19°C° 0 mm 1 mps 750 mmHg 82%
    08:00 +21°C° 0 mm 1 mps 750 mmHg 77%
    09:00 +22°C° 0.2 mm 1 mps 750 mmHg 72%
    10:00 +23°C° 0.2 mm 2 mps 750 mmHg 67%
    11:00 +25°C° 0.2 mm 2 mps 750 mmHg 61%
    12:00 +25°C° 0.3 mm 2 mps 750 mmHg 60%
    13:00 +26°C° 0.3 mm 2 mps 750 mmHg 58%
    14:00 +26°C° 0.3 mm 2 mps 750 mmHg 56%
    15:00 +26°C° 0.4 mm 1 mps 750 mmHg 58%
    16:00 +26°C° 0.4 mm 1 mps 750 mmHg 60%
    17:00 +25°C° 0.4 mm 1 mps 750 mmHg 63%
    18:00 +24°C° 0.1 mm 1 mps 750 mmHg 69%
    19:00 +22°C° 0.1 mm 1 mps 750 mmHg 75%
    20:00 +20°C° 0.1 mm 1 mps 750 mmHg 80%
    21:00 +19°C° 0 mm 1 mps 751 mmHg 82%
    22:00 +19°C° 0 mm 1 mps 751 mmHg 85%
    23:00 +18°C° 0 mm 1 mps 751 mmHg 87%

    21 July, Sunday

    Time Temperature Precipitation Wind Pressure Humidity
    00:00 +15°C° 0 mm 0 mps 751 mmHg 87%
    01:00 +15°C° 0 mm 0 mps 751 mmHg 88%
    02:00 +15°C° 0 mm 0 mps 751 mmHg 88%
    03:00 +14°C° 0 mm 0 mps 751 mmHg 88%
    04:00 +14°C° 0 mm 0 mps 751 mmHg 89%
    05:00 +14°C° 0 mm 0 mps 751 mmHg 89%
    06:00 +18°C° 0 mm 1 mps 751 mmHg 84%
    07:00 +20°C° 0 mm 1 mps 751 mmHg 79%
    08:00 +22°C° 0 mm 1 mps 751 mmHg 74%
    09:00 +24°C° 0 mm 1 mps 751 mmHg 68%
    10:00 +25°C° 0 mm 1 mps 751 mmHg 62%
    11:00 +25°C° 0 mm 0 mps 751 mmHg 56%
    12:00 +27°C° 0 mm 1 mps 751 mmHg 53%
    13:00 +28°C° 0 mm 1 mps 751 mmHg 51%
    14:00 +28°C° 0 mm 1 mps 751 mmHg 49%
    15:00 +28°C° 0 mm 1 mps 750 mmHg 50%
    16:00 +28°C° 0 mm 1 mps 750 mmHg 52%
    17:00 +27°C° 0 mm 1 mps 750 mmHg 53%
    18:00 +26°C° 0 mm 1 mps 750 mmHg 60%
    19:00 +24°C° 0 mm 1 mps 750 mmHg 66%
    20:00 +21°C° 0 mm 2 mps 750 mmHg 73%
    21:00 +20°C° 0.1 mm 2 mps 750 mmHg 74%
    22:00 +20°C° 0.1 mm 2 mps 750 mmHg 75%
    23:00 +19°C° 0.1 mm 2 mps 750 mmHg 77%

    22 July, Monday

    Time Temperature Precipitation Wind Pressure Humidity
    00:00 +19°C° 0.2 mm 2 mps 750 mmHg 80%
    01:00 +18°C° 0.2 mm 2 mps 750 mmHg 84%
    02:00 +19°C° 0.2 mm 1 mps 750 mmHg 87%
    03:00 +18°C° 0 mm 2 mps 749 mmHg 87%
    04:00 +18°C° 0 mm 2 mps 749 mmHg 87%
    05:00 +17°C° 0 mm 2 mps 749 mmHg 87%
    06:00 +18°C° 0.3 mm 2 mps 749 mmHg 86%
    07:00 +19°C° 0.3 mm 2 mps 749 mmHg 85%
    08:00 +21°C° 0.3 mm 2 mps 749 mmHg 84%
    09:00 +23°C° 0.9 mm 2 mps 749 mmHg 80%
    10:00 +24°C° 0.9 mm 3 mps 749 mmHg 77%
    11:00 +25°C° 0.9 mm 3 mps 749 mmHg 73%
    12:00 +25°C° 0.8 mm 3 mps 749 mmHg 73%
    13:00 +25°C° 0.8 mm 3 mps 749 mmHg 72%
    14:00 +26°C° 0.8 mm 3 mps 749 mmHg 72%
    15:00 +26°C° 0.6 mm 3 mps 749 mmHg 73%
    16:00 +26°C° 0.6 mm 3 mps 749 mmHg 73%
    17:00 +26°C° 0.6 mm 3 mps 748 mmHg 74%
    18:00 +24°C° 0.6 mm 3 mps 748 mmHg 79%
    19:00 +23°C° 0.6 mm 2 mps 749 mmHg 84%
    20:00 +20°C° 0.6 mm 2 mps 749 mmHg 89%
    21:00 +19°C° 0.1 mm 2 mps 749 mmHg 90%
    22:00 +19°C° 0.1 mm 2 mps 749 mmHg 91%
    23:00 +18°C° 0.1 mm 2 mps 749 mmHg 93%
    Show more